[[{"header":{"parameterUnit":"m.s-1","parameterCategory":1,"la1":30.2991,"la2":30.254,"lo1":-89.0895,"lo2":-89.0444,"dy":0.0017,"dx":0.0017,"nx":28,"ny":28,"refTime":"2025-08-28T09:00:00:Z","depth":0,"parameterNumber":2,"parameterNumberName":"U-component_of_WINDS"},"data":[0,0,0,0,0,0,0,0,0,0,0,0,0,0,0,0,0,0,0,0,0,0,0,0,0,0,0,0,0,0,0,0,0,0,0,0,0,0,0,0,0,0,0,0,0,0,0,0,0,0,0,0,0,0,0,0,0,0,-1.6873,-1.6872,0,-1.677,-1.6769,-1.6768,-1.6668,-1.6666,-1.6665,-1.6664,-1.6556,-1.6554,-1.6552,0,0,0,0,0,0,0,0,0,0,0,0,0,-1.6984,-1.6983,-1.6874,-1.6872,-1.6871,-1.677,-1.6769,-1.6767,-1.6668,-1.6666,-1.6665,-1.6663,-1.6556,-1.6554,-1.6552,0,0,0,0,0,0,0,0,0,0,0,0,0,-1.6914,-1.6982,-1.6874,-1.6809,-1.6802,-1.677,-1.6769,-1.6767,-1.6668,-1.6666,-1.6664,-1.6663,-1.6557,-1.6554,-1.6552,-1.6574,0,0,-1.6544,-1.6543,0,0,0,0,0,0,0,0,-1.6918,-1.691,-1.682,-1.6814,-1.6806,-1.673,-1.6768,-1.6702,-1.6669,-1.6719,-1.6664,-1.6662,-1.6615,-1.6608,-1.6592,-1.6569,-1.6565,-1.6544,-1.6542,-1.6541,-1.654,0,0,0,0,0,0,0,-1.6923,-1.6914,-1.6832,-1.6819,-1.681,-1.6785,-1.6773,-1.6755,-1.6679,-1.6715,-1.6707,-1.6696,-1.6611,-1.6595,-1.6589,-1.6563,-1.6544,-1.6542,-1.654,-1.6539,-1.6555,-1.6557,0,0,0,0,0,0,-1.6938,-1.6919,-1.6836,-1.6829,-1.6859,-1.6785,-1.6771,-1.6756,-1.6679,-1.6665,-1.6698,-1.6692,-1.66,-1.6592,-1.6585,-1.6606,-1.6541,-1.6539,-1.6537,-1.6553,-1.6555,-1.6557,0,0,0,0,0,0,-1.6941,-1.6932,-1.684,-1.6872,-1.6858,-1.6785,-1.6769,-1.6755,-1.6739,-1.6666,-1.6652,-1.6696,-1.6598,-1.6588,-1.6578,-1.6601,-1.6538,-1.6535,-1.6551,-1.6554,-1.6556,-1.6649,0,0,0,0,0,0,-1.6945,-1.6933,-1.6941,-1.6873,-1.6857,-1.6835,-1.677,-1.6755,-1.6735,-1.6726,-1.6661,-1.6648,-1.6596,-1.6583,-1.6576,-1.6596,-1.6533,-1.6548,-1.6552,-1.6555,-1.6644,-1.6655,-1.6665,0,0,0,0,0,-1.6949,-1.6971,-1.6942,-1.6932,-1.6865,-1.6837,-1.6828,-1.6768,-1.6738,-1.6745,-1.6698,-1.665,-1.66,-1.6582,-1.6574,-1.6594,-1.6546,-1.6551,-1.6555,-1.6639,-1.6653,-1.6664,0,0,0,0,0,0,-1.7042,-1.696,-1.6928,-1.6928,-1.6891,-1.682,-1.6827,-1.6785,-1.6754,-1.6747,-1.6674,-1.666,-1.6658,-1.6625,-1.6607,-1.6613,-1.6567,-1.657,-1.6634,-1.6646,-1.6656,-1.6663,-1.6531,0,0,0,0,0,-1.7063,-1.7047,-1.6976,-1.6984,-1.6967,-1.6901,-1.6886,-1.6844,-1.6801,-1.6784,-1.6737,-1.6698,-1.6673,-1.6658,-1.6631,-1.664,-1.6624,-1.665,-1.666,-1.6669,-1.6672,-1.6674,-1.6685,-1.6572,-1.6572,-1.6572,0,0,-1.7105,-1.7058,-1.7052,-1.7001,-1.6967,-1.6952,-1.6888,-1.6874,-1.6862,-1.6782,-1.6769,-1.6734,-1.6685,-1.6685,-1.6682,-1.6657,-1.67,-1.6675,-1.6682,-1.668,-1.668,-1.6691,-1.67,-1.6575,-1.6574,-1.6574,0,0,-1.7173,-1.7137,-1.7139,-1.7107,-1.7057,-1.7013,-1.7014,-1.6951,-1.6925,-1.6912,-1.6852,-1.6837,-1.6796,-1.6763,-1.6742,-1.6802,-1.6757,-1.6796,-1.6849,-1.6853,-1.6862,-1.6869,-1.689,-1.6899,-1.6799,-1.68,-1.68,0,-1.7231,-1.7206,-1.7145,-1.7136,-1.7115,-1.7045,-1.7046,-1.7018,-1.6962,-1.6949,-1.6922,-1.6871,-1.6833,-1.6824,-1.6839,-1.6824,-1.6823,-1.6801,-1.6866,-1.6872,-1.6878,-1.6898,-1.6906,-1.6804,-1.6804,-1.6803,-1.6803,0,-1.7281,-1.7265,-1.7273,-1.7221,-1.7202,-1.7198,-1.7136,-1.7124,-1.7085,-1.7045,-1.7033,-1.6986,-1.6949,-1.6944,-1.6905,-1.693,-1.6916,-1.6879,-1.6831,-1.6895,-1.6912,-1.6919,-1.6812,-1.681,-1.6808,-1.6807,0,0,-1.7401,-1.7319,-1.7322,-1.7298,-1.7239,-1.7226,-1.722,-1.7185,-1.7176,-1.714,-1.7133,-1.7102,-1.7067,-1.7043,-1.7,-1.7004,-1.7055,-1.6965,-1.6963,-1.6983,-1.708,-1.7107,-1.7117,-1.7025,-1.7027,-1.7028,-1.7084,0,-1.7458,-1.7443,-1.739,-1.739,-1.7375,-1.731,-1.7304,-1.7268,-1.7231,-1.7212,-1.7171,-1.715,-1.7107,-1.7092,-1.7093,-1.7048,-1.7073,-1.7044,-1.7017,-1.7017,-1.7029,-1.7125,-1.7153,-1.7208,-1.709,-1.7091,-1.7092,0,-1.7522,-1.7493,-1.7492,-1.7436,-1.7427,-1.7423,-1.7388,-1.7371,-1.7329,-1.7302,-1.7277,-1.723,-1.722,-1.7178,-1.7164,-1.7146,-1.7132,-1.7109,-1.711,-1.7103,-1.7057,-1.712,-1.7225,-1.7233,-1.7102,-1.7101,-1.71,0,-1.7609,-1.7569,-1.7564,-1.7546,-1.748,-1.7479,-1.7451,-1.7407,-1.739,-1.736,-1.7348,-1.7317,-1.7299,-1.7276,-1.7223,-1.7197,-1.7214,-1.7167,-1.7191,-1.7193,-1.7195,-1.7195,-1.7298,-1.719,-1.719,-1.719,-1.719,0,-1.7678,-1.768,-1.7602,-1.7599,-1.76,-1.7539,-1.7542,-1.7508,-1.747,-1.7459,-1.7401,-1.7392,-1.7323,-1.7306,-1.7264,-1.7258,-1.7251,-1.7229,-1.7217,-1.7233,-1.7236,-1.7221,-1.7215,-1.7192,-1.7192,-1.7191,-1.7191,0,-1.7773,-1.7722,-1.7712,-1.7651,-1.7636,-1.7639,-1.7587,-1.7582,-1.7543,-1.753,-1.7523,-1.7462,-1.7439,-1.7384,-1.7347,-1.7319,-1.7324,-1.7304,-1.7339,-1.7331,-1.7357,-1.7355,-1.7452,-1.7462,-1.735,-1.7352,-1.7352,0,-1.7819,-1.7819,-1.776,-1.7749,-1.7724,-1.7707,-1.769,-1.7631,-1.7616,-1.757,-1.757,-1.7544,-1.7518,-1.7486,-1.7438,-1.7409,-1.7387,-1.7424,-1.7382,-1.7399,-1.7386,-1.7386,-1.7386,-1.7432,-1.7433,-1.7434,-1.7435,0,-1.7906,-1.7881,-1.7859,-1.7829,-1.7811,-1.7784,-1.7754,-1.7749,-1.7683,-1.7669,-1.7646,-1.7627,-1.759,-1.7565,-1.753,-1.7501,-1.7457,-1.745,-1.7453,-1.7468,-1.7487,-1.7476,-1.7361,-1.7447,-1.7445,-1.7445,-1.7444,-1.7444,-1.7977,-1.7974,-1.7933,-1.7911,-1.7883,-1.7857,-1.7849,-1.781,-1.779,-1.7756,-1.7723,-1.7704,-1.7664,-1.7612,-1.7587,-1.7571,-1.7548,-1.7554,-1.7555,-1.7557,-1.7564,-1.7492,-1.7565,-1.7564,-1.7564,-1.7564,-1.7563,0,-1.8059,-1.803,-1.8011,-1.7972,-1.7955,-1.7918,-1.7884,-1.7872,-1.7856,-1.7822,-1.78,-1.7775,-1.775,-1.7702,-1.7673,-1.767,-1.7649,-1.7664,-1.7663,-1.7657,-1.7586,-1.7585,-1.7681,-1.7681,-1.7681,-1.7681,-1.7681,-1.7681,-1.81,-1.8095,-1.8066,-1.8046,-1.8016,-1.7997,-1.7981,-1.7957,-1.793,-1.7905,-1.7885,-1.7854,-1.7815,-1.7783,-1.776,-1.7746,-1.7738,-1.7759,-1.7739,-1.7673,-1.7662,-1.7651,-1.765,-1.7758,-1.7758,-1.7811,-1.7811,-1.7811]},{"header":{"parameterUnit":"m.s-1","parameterCategory":1,"la1":30.2991,"la2":30.254,"lo1":-89.0895,"lo2":-89.0444,"dy":0.0017,"dx":0.0017,"nx":28,"ny":28,"refTime":"2025-08-28T09:00:00:Z","depth":0,"parameterNumber":3,"parameterNumberName":"V-component_of_WINDS"},"data":[0,0,0,0,0,0,0,0,0,0,0,0,0,0,0,0,0,0,0,0,0,0,0,0,0,0,0,0,0,0,0,0,0,0,0,0,0,0,0,0,0,0,0,0,0,0,0,0,0,0,0,0,0,0,0,0,0,0,3.7343,3.7343,0,3.7325,3.7325,3.7325,3.7349,3.735,3.7351,3.7352,3.7327,3.7325,3.7324,0,0,0,0,0,0,0,0,0,0,0,0,0,3.7393,3.7392,3.7343,3.7343,3.7343,3.7325,3.7325,3.7325,3.7349,3.735,3.7352,3.7353,3.7327,3.7325,3.7323,0,0,0,0,0,0,0,0,0,0,0,0,0,3.7372,3.7391,3.7343,3.7353,3.7354,3.7325,3.7325,3.7325,3.7349,3.735,3.7352,3.7353,3.7328,3.7325,3.7323,3.7282,0,0,3.7316,3.7315,0,0,0,0,0,0,0,0,3.7374,3.7371,3.7352,3.7352,3.7353,3.7341,3.7333,3.731,3.7349,3.7351,3.7352,3.7354,3.733,3.7327,3.7321,3.7281,3.728,3.7316,3.7315,3.7314,3.7313,0,0,0,0,0,0,0,3.7375,3.7371,3.7336,3.7351,3.7352,3.7356,3.7355,3.7329,3.7332,3.735,3.7352,3.735,3.733,3.7323,3.732,3.7279,3.7316,3.7314,3.7313,3.7312,3.7206,3.7205,0,0,0,0,0,0,3.7376,3.7373,3.7336,3.7335,3.7367,3.7355,3.7353,3.7343,3.7333,3.7333,3.7349,3.7351,3.7326,3.7323,3.732,3.7271,3.7314,3.7312,3.731,3.7207,3.7206,3.7204,0,0,0,0,0,0,3.7377,3.7373,3.7337,3.7354,3.735,3.7352,3.7341,3.7342,3.7335,3.7332,3.7332,3.7341,3.7327,3.7323,3.7292,3.7271,3.7311,3.7308,3.7209,3.7207,3.7205,3.7174,0,0,0,0,0,0,3.7378,3.7373,3.7358,3.7354,3.7349,3.7311,3.734,3.7341,3.7332,3.7335,3.7325,3.7324,3.7328,3.7295,3.729,3.7268,3.7307,3.7211,3.7208,3.7206,3.7177,3.7171,3.7166,0,0,0,0,0,3.738,3.7348,3.7357,3.7353,3.7331,3.731,3.7307,3.7314,3.733,3.7315,3.7313,3.7325,3.7275,3.7292,3.7286,3.7263,3.7212,3.7209,3.7206,3.7179,3.7172,3.7166,0,0,0,0,0,0,3.7347,3.7348,3.7358,3.7324,3.7317,3.7314,3.7295,3.7306,3.7292,3.7295,3.7302,3.73,3.7267,3.7262,3.7282,3.7224,3.7246,3.7241,3.7228,3.7221,3.7216,3.7217,3.7305,0,0,0,0,0,3.7336,3.7321,3.7322,3.7292,3.7288,3.7292,3.7283,3.729,3.7281,3.7278,3.7274,3.7263,3.7246,3.7233,3.7217,3.7177,3.7175,3.7159,3.7154,3.7149,3.7144,3.7124,3.7117,3.7194,3.7194,3.7194,0,0,3.7313,3.7312,3.73,3.7285,3.728,3.7263,3.7289,3.7269,3.7255,3.7274,3.7245,3.7242,3.7231,3.7196,3.7181,3.7191,3.7123,3.7145,3.7142,3.7139,3.712,3.7113,3.7106,3.7191,3.7192,3.7192,0,0,3.7261,3.7259,3.7234,3.723,3.7224,3.7227,3.7221,3.7217,3.7217,3.7189,3.7203,3.7186,3.7155,3.7148,3.7139,3.7088,3.7098,3.7082,3.7053,3.7033,3.7027,3.7021,3.7003,3.6996,3.7078,3.7078,3.7078,0,3.7232,3.7207,3.7219,3.7199,3.7192,3.7211,3.7186,3.718,3.7168,3.7161,3.7175,3.7138,3.7132,3.7095,3.7083,3.7076,3.7069,3.7082,3.7027,3.7022,3.7017,3.6999,3.6992,3.7076,3.7076,3.7076,3.7076,0,3.7172,3.7155,3.7135,3.7126,3.7117,3.7094,3.7101,3.709,3.7098,3.71,3.7071,3.7066,3.7049,3.7041,3.7047,3.7006,3.7013,3.7027,3.7048,3.7008,3.6991,3.6984,3.7073,3.7074,3.7074,3.7075,0,0,3.7096,3.7096,3.7089,3.7085,3.7081,3.7067,3.7045,3.7032,3.7022,3.7013,3.6994,3.6969,3.6983,3.6973,3.6979,3.6962,3.6922,3.6978,3.6978,3.6967,3.6876,3.6865,3.6857,3.6929,3.6928,3.6927,3.6876,0,3.7044,3.7008,3.702,3.6983,3.6967,3.6987,3.6968,3.6962,3.6964,3.6949,3.695,3.6933,3.6952,3.6947,3.6931,3.693,3.6903,3.6934,3.691,3.6909,3.6911,3.6848,3.6836,3.6788,3.687,3.6869,3.6868,0,3.6978,3.697,3.6932,3.6933,3.6926,3.6909,3.6898,3.6885,3.6879,3.6882,3.6874,3.6884,3.6861,3.6885,3.6853,3.6874,3.6865,3.6863,3.6862,3.6858,3.6885,3.6842,3.6773,3.6765,3.6858,3.6859,3.6859,0,3.6926,3.6905,3.6881,3.6877,3.6877,3.6864,3.6863,3.686,3.6851,3.6841,3.6836,3.6823,3.6815,3.6804,3.681,3.6827,3.6777,3.6801,3.6777,3.6777,3.6763,3.6764,3.6691,3.676,3.676,3.676,3.676,0,3.6866,3.6842,3.6858,3.6842,3.6816,3.6829,3.6802,3.6803,3.68,3.6784,3.68,3.6784,3.6794,3.6779,3.6783,3.6756,3.6753,3.6753,3.6754,3.6751,3.6751,3.6744,3.6747,3.6758,3.6759,3.6759,3.6759,0,3.6802,3.6812,3.6786,3.6789,3.679,3.677,3.6772,3.6757,3.6761,3.6741,3.6737,3.6743,3.6726,3.6732,3.6713,3.6716,3.6682,3.6688,3.6684,3.6685,3.666,3.6662,3.6579,3.6569,3.6645,3.6645,3.6644,0,3.6762,3.6745,3.6747,3.6739,3.6738,3.6724,3.6717,3.673,3.6721,3.6715,3.67,3.6686,3.6675,3.6647,3.6648,3.6634,3.6639,3.6611,3.6637,3.6635,3.6638,3.6638,3.6637,3.6605,3.6604,3.6604,3.6603,0,3.6691,3.6697,3.6687,3.6679,3.6671,3.6664,3.6659,3.6651,3.6664,3.6653,3.6638,3.6629,3.6612,3.6597,3.6585,3.6582,3.6594,3.6596,3.6589,3.6585,3.6583,3.6583,3.6669,3.6597,3.6597,3.6598,3.6598,3.6599,3.6637,3.6623,3.6623,3.6612,3.661,3.6605,3.6592,3.6596,3.6585,3.6573,3.6581,3.6563,3.6559,3.6545,3.6541,3.6526,3.6537,3.6527,3.6525,3.6522,3.6519,3.6588,3.6524,3.6524,3.6524,3.6525,3.6525,0,3.6566,3.6568,3.6558,3.6552,3.6543,3.6559,3.6554,3.6545,3.6529,3.6526,3.6516,3.6499,3.6485,3.6487,3.6474,3.6462,3.6467,3.6458,3.6458,3.6457,3.651,3.6517,3.6454,3.6454,3.6454,3.6454,3.6454,3.6454,3.6528,3.6505,3.6512,3.6489,3.649,3.6475,3.6471,3.6467,3.6464,3.6445,3.6435,3.6437,3.6436,3.6423,3.6411,3.6412,3.6406,3.6395,3.6397,3.6446,3.6453,3.646,3.6466,3.6394,3.6393,3.6345,3.6345,3.6345]}]]